Content
SEND FEEDBACK

Daily
Averages
Monthly
Summary
French Polynesia

PAPEETE, FRENCH POLYNESIA


Home > Oceania > French Polynesia
Elevation: 7 feet     Latitude: 17 33S     Longitude: 149 36W

WEATHER
 
SELECT A DAY
Number of Records: 213,109;   Date Range: 6/30/96 - 9/30/14
 
SHARE

PRINT THIS DATA

[ ← Previous Day ]
WEATHER ALMANAC - JULY 20, 2014
[ Next Day → ]
[ °C ]   °F
Weather ElementAverageHighLow
Temperature77.1 °F84.2 °F (1:00 pm)71.6 °F (2:30 am)
Dewpoint67.8 °F69.8 °F (11:00 am)64.4 °F (7:00 am)
Humidity72.4 %88 % (2:30 am)54 % (2:00 pm)
Barometer29.97 in30.01 in (12:30 am)29.92 in (1:30 pm)
Wind Speed4.2 mph8.1 mph (1:30 pm)
Weather ElementAverage
Visibility8.1 mi
Wind DirectionSE (140.4 °)

Weather ElementTotal
Precipitation---
Cooling Degree Days12.9 (Base 65)
Growing Degree Days27.9 (Base 50)
Averaged from 53 records on July 20, 2014
WEATHER CONDITIONS BREAKOUT
WIND DIRECTION BREAKOUT
WEATHER BY HOUR - JULY 20, 2014
[ °C ]   °F
Local TimeTemperatureDewpointHumidityBarometerVisibilityWind DirectionWind SpeedGust SpeedPrecipitationEventsConditions
12:30 AM73.4 °F68.0 °F83 %30.01 in6.2 miSSE (160°)4.6 mphPartly Cloudy
1:00 AM73.4 °F68.0 °F83 %29.98 in6.2 miSSE (160°)4.6 mphPartly Cloudy
1:30 AM73.4 °F68.0 °F83 %29.98 in6.2 miEast (100°)3.5 mphPartly Cloudy
2:00 AM72.0 °F67.0 °F80 %29.98 in12.0 miSSE (150°)1.2 mphScattered Clouds
2:00 AM73.4 °F68.0 °F83 %29.98 in6.2 miVariable1.2 mphPartly Cloudy
2:30 AM71.6 °F68.0 °F88 %29.95 in6.2 miCalmPartly Cloudy
3:00 AM71.6 °F66.2 °F83 %29.95 in6.2 miVariable1.2 mphPartly Cloudy
3:30 AM71.6 °F66.2 °F83 %29.95 in6.2 miVariable2.3 mph
4:00 AM71.6 °F66.2 °F83 %29.95 in6.2 miSSE (150°)3.5 mph
4:30 AM71.6 °F68.0 °F88 %29.95 in6.2 miVariable1.2 mphPartly Cloudy
5:00 AM72.0 °F67.0 °F79 %29.97 in37.0 miESE (120°)2.3 mphClear
5:00 AM71.6 °F66.2 °F83 %29.95 in6.2 miVariable2.3 mph
5:30 AM71.6 °F66.2 °F83 %29.95 in6.2 miSE (140°)2.3 mph
6:00 AM71.6 °F66.2 °F83 %29.98 in6.2 miSE (130°)3.5 mphPartly Cloudy
6:30 AM71.6 °F66.2 °F83 %29.98 in6.2 miSSE (160°)4.6 mphPartly Cloudy
7:00 AM71.6 °F64.4 °F78 %29.98 in6.2 miVariable2.3 mphPartly Cloudy
7:30 AM73.4 °F66.2 °F78 %29.98 in6.2 miVariable2.3 mphPartly Cloudy
8:00 AM77.0 °F66.0 °F61 %30.01 in19.0 miSSE (150°)1.2 mphPartly Cloudy
8:00 AM77.0 °F66.2 °F69 %30.01 in6.2 miVariable1.2 mphPartly Cloudy
8:30 AM78.8 °F68.0 °F69 %30.01 in6.2 miSSW (200°)4.6 mphPartly Cloudy
9:00 AM80.6 °F68.0 °F65 %30.01 in6.2 miSW (230°)4.6 mphPartly Cloudy
9:30 AM80.6 °F68.0 °F65 %30.01 in6.2 miSW (230°)5.8 mphPartly Cloudy
10:00 AM80.6 °F68.0 °F65 %30.01 in6.2 miWSW (250°)4.6 mphPartly Cloudy
10:30 AM82.4 °F68.0 °F62 %29.98 in6.2 miWSW (240°)4.6 mphPartly Cloudy
11:00 AM82.0 °F69.0 °F56 %29.99 in19.0 miSW (220°)6.9 mphScattered Clouds
11:00 AM82.4 °F69.8 °F66 %29.98 in6.2 miSW (220°)6.9 mphPartly Cloudy
11:30 AM82.4 °F68.0 °F62 %29.98 in6.2 miSW (220°)5.8 mphPartly Cloudy
12:30 PM82.4 °F68.0 °F62 %29.95 in6.2 miSW (230°)5.8 mphPartly Cloudy
1:00 PM84.2 °F69.8 °F62 %29.95 in6.2 miSW (230°)6.9 mphPartly Cloudy
1:30 PM84.2 °F69.8 °F62 %29.92 in6.2 miSW (220°)8.1 mphPartly Cloudy
2:00 PM83.0 °F69.0 °F54 %29.93 in19.0 miSSW (210°)8.1 mphScattered Clouds
2:00 PM84.2 °F69.8 °F62 %29.92 in6.2 miSSW (210°)8.1 mphPartly Cloudy
2:30 PM84.2 °F68.0 °F58 %29.92 in6.2 miSSW (210°)5.8 mphPartly Cloudy
3:30 PM84.2 °F69.8 °F62 %29.92 in6.2 miSSW (210°)5.8 mphPartly Cloudy
4:00 PM82.4 °F69.8 °F66 %29.92 in6.2 miSW (220°)3.5 mphPartly Cloudy
4:35 PM82.4 °F68.0 °F62 %29.92 in6.2 miSSW (210°)3.5 mphPartly Cloudy
5:00 PM81.0 °F68.0 °F57 %29.94 in19.0 miSW (220°)2.3 mphScattered Clouds
5:00 PM80.6 °F68.0 °F65 %29.92 in6.2 miVariable2.3 mphPartly Cloudy
5:30 PM80.6 °F69.8 °F70 %29.92 in6.2 miSouth (190°)5.8 mphScattered Clouds
6:00 PM78.8 °F69.8 °F74 %29.95 in6.2 miSouth (180°)6.9 mphPartly Cloudy
6:30 PM78.8 °F69.8 °F74 %29.95 in6.2 miSouth (180°)8.1 mphPartly Cloudy
7:00 PM78.8 °F69.8 °F74 %29.95 in6.2 miSouth (180°)8.1 mphPartly Cloudy
7:30 PM77.0 °F68.0 °F74 %29.98 in6.2 miSouth (170°)5.8 mphPartly Cloudy
8:00 PM77.0 °F68.0 °F67 %29.98 in12.0 miSouth (180°)6.9 mphScattered Clouds
8:00 PM77.0 °F68.0 °F74 %29.98 in6.2 miSouth (180°)6.9 mphPartly Cloudy
8:30 PM77.0 °F68.0 °F74 %29.98 in6.2 miSouth (170°)4.6 mphPartly Cloudy
9:00 PM75.2 °F68.0 °F78 %29.98 in6.2 miSSE (160°)3.5 mphPartly Cloudy
9:30 PM75.2 °F66.2 °F73 %29.98 in6.2 miCalmPartly Cloudy
10:00 PM75.2 °F66.2 °F73 %29.98 in6.2 miEast (90°)3.5 mphPartly Cloudy
10:30 PM73.4 °F66.2 °F78 %29.98 in6.2 miEast (80°)3.5 mphPartly Cloudy
11:00 PM74.0 °F67.0 °F73 %29.97 in12.0 miEast (80°)3.5 mphScattered Clouds
11:00 PM73.4 °F68.0 °F83 %29.95 in6.2 miEast (80°)3.5 mphPartly Cloudy
11:30 PM73.4 °F68.0 °F83 %29.95 in6.2 miESE (120°)1.2 mphPartly Cloudy
Hourly data recorded from NTAA, located miles away from Papeete, French Polynesia







STORIES FROM OUR PARTNERS